| time (UTC) | temp F | wind direction | speed MPH | gust MPH | rain 1hr in | rain 24hr in | rain mn in | humidity % | barometer mb |
| 20260508101512 | 35 | 173 | 1.0 | 2.0 | 0.00 | 0.00 | 0.00 | 99 | 989.1 |
| 20260508100938 | 34 | 183 | 1.0 | 2.0 | 0.00 | 0.00 | 0.00 | 99 | 989.1 |
| 20260508100331 | 35 | 163 | 1.0 | 2.0 | 0.00 | 0.00 | 0.00 | 99 | 989.5 |
| 20260508095748 | 35 | 211 | 1.0 | 3.0 | 0.00 | 0.00 | 0.00 | 99 | 989.1 |
| 20260508095130 | 35 | 147 | 1.0 | 3.0 | 0.00 | 0.00 | 0.00 | 99 | 989.1 |
| 20260508094522 | 35 | 161 | 2.0 | 2.0 | 0.00 | 0.00 | 0.00 | 99 | 989.1 |
| 20260508093943 | 35 | 221 | 1.0 | 2.0 | 0.00 | 0.00 | 0.00 | 99 | 988.8 |
| 20260508092722 | 36 | 175 | 0.0 | 2.0 | 0.00 | 0.00 | 0.00 | 99 | 989.1 |
| 20260508092142 | 36 | 145 | 1.0 | 2.0 | 0.00 | 0.00 | 0.00 | 99 | 989.1 |
| 20260508091528 | 36 | 189 | 1.0 | 3.0 | 0.00 | 0.00 | 0.00 | 99 | 989.1 |
| 20260508090932 | 36 | 210 | 0.0 | 2.0 | 0.00 | 0.00 | 0.00 | 99 | 989.1 |
| 20260508085139 | 37 | 145 | 2.0 | 2.0 | 0.00 | 0.00 | 0.00 | 99 | 989.1 |
| 20260508084547 | 37 | 157 | 1.0 | 3.0 | 0.00 | 0.00 | 0.00 | 99 | 989.1 |
| 20260508083912 | 37 | 119 | 0.0 | 2.0 | 0.00 | 0.00 | 0.00 | 99 | 989.1 |
| 20260508083313 | 38 | 114 | 0.0 | 2.0 | 0.00 | 0.00 | 0.00 | 99 | 989.1 |
| 20260508082735 | 38 | 113 | 0.0 | 2.0 | 0.00 | 0.00 | 0.00 | 99 | 989.1 |
| 20260508082150 | 38 | 43 | 0.0 | 2.0 | 0.00 | 0.00 | 0.00 | 99 | 989.1 |
| 20260508081537 | 37 | 147 | 1.0 | 2.0 | 0.00 | 0.00 | 0.00 | 99 | 989.1 |
| 20260508080328 | 37 | 54 | 0.0 | 2.0 | 0.00 | 0.00 | 0.00 | 99 | 989.1 |
| 20260508075731 | 37 | 123 | 0.0 | 2.0 | 0.00 | 0.00 | 0.00 | 99 | 989.1 |
| 20260508075120 | 37 | 125 | 2.0 | 3.0 | 0.00 | 0.00 | 0.00 | 99 | 989.5 |
| 20260508074529 | 36 | 139 | 1.0 | 3.0 | 0.00 | 0.00 | 0.00 | 99 | 989.1 |
| 20260508073327 | 36 | 111 | 0.0 | 2.0 | 0.00 | 0.00 | 0.00 | 99 | 989.1 |
| 20260508072733 | 36 | 308 | 0.0 | 2.0 | 0.00 | 0.00 | 0.00 | 99 | 989.1 |
| 20260508072115 | 35 | 43 | 0.0 | 2.0 | 0.00 | 0.00 | 0.00 | 99 | 989.1 |
| 20260508071537 | 35 | 209 | 0.0 | 3.0 | 0.00 | 0.00 | 0.00 | 99 | 989.5 |
| 20260508070951 | 35 | 263 | 0.0 | 2.0 | 0.00 | 0.00 | 0.00 | 99 | 989.1 |
| 20260508070338 | 35 | 196 | 0.0 | 2.0 | 0.00 | 0.00 | 0.00 | 99 | 989.1 |
| 20260508065738 | 35 | 164 | 0.0 | 3.0 | 0.00 | 0.00 | 0.00 | 99 | 989.1 |
| 20260508065133 | 35 | 172 | 2.0 | 4.0 | 0.00 | 0.00 | 0.00 | 99 | 989.1 |
| 20260508064520 | 35 | 33 | 1.0 | 4.0 | 0.00 | 0.00 | 0.00 | 99 | 989.1 |
| 20260508063925 | 35 | 232 | 1.0 | 2.0 | 0.00 | 0.00 | 0.00 | 99 | 989.1 |
| 20260508063318 | 35 | 162 | 2.0 | 4.0 | 0.00 | 0.00 | 0.00 | 99 | 989.1 |
| 20260508062742 | 35 | 172 | 1.0 | 2.0 | 0.00 | 0.00 | 0.00 | 99 | 989.1 |
| 20260508062146 | 35 | 125 | 2.0 | 2.0 | 0.00 | 0.00 | 0.00 | 99 | 989.5 |
| 20260508061530 | 36 | 221 | 2.0 | 3.0 | 0.00 | 0.00 | 0.00 | 99 | 989.1 |
| 20260508060909 | 35 | 215 | 0.0 | 3.0 | 0.00 | 0.00 | 0.00 | 99 | 989.5 |
| 20260508060341 | 35 | 191 | 1.0 | 4.0 | 0.00 | 0.00 | 0.00 | 99 | 989.1 |
| 20260508055751 | 36 | 120 | 0.0 | 3.0 | 0.00 | 0.00 | 0.00 | 99 | 989.5 |
| 20260508055141 | 36 | 196 | 0.0 | 2.0 | 0.00 | 0.00 | 0.00 | 99 | 989.5 |
| 20260508054544 | 36 | 162 | 0.0 | 3.0 | 0.00 | 0.00 | 0.00 | 99 | 989.5 |
| 20260508052738 | 36 | 205 | 1.0 | 2.0 | 0.00 | 0.00 | 0.00 | 99 | 989.5 |
| 20260508052132 | 36 | 167 | 1.0 | 2.0 | 0.00 | 0.00 | 0.00 | 99 | 989.5 |
| 20260508051526 | 36 | 163 | 1.0 | 2.0 | 0.00 | 0.00 | 0.00 | 98 | 989.8 |
| 20260508050945 | 37 | 174 | 0.0 | 2.0 | 0.00 | 0.00 | 0.00 | 99 | 989.8 |
| 20260508050309 | 36 | 183 | 1.0 | 2.0 | 0.00 | 0.00 | 0.00 | 98 | 989.8 |
| 20260508045724 | 37 | 182 | 0.0 | 2.0 | 0.00 | 0.00 | 0.00 | 98 | 989.5 |
| 20260508045128 | 37 | 162 | 1.0 | 2.0 | 0.00 | 0.00 | 0.00 | 98 | 989.8 |
| 20260508044542 | 37 | 189 | 1.0 | 2.0 | 0.00 | 0.00 | 0.00 | 98 | 989.5 |
| 20260508043936 | 37 | 210 | 2.0 | 2.0 | 0.00 | 0.00 | 0.00 | 98 | 989.5 |
| 20260508043347 | 37 | 205 | 1.0 | 2.0 | 0.00 | 0.00 | 0.00 | 98 | 989.5 |
| 20260508042723 | 37 | 152 | 0.0 | 2.0 | 0.00 | 0.00 | 0.00 | 97 | 989.5 |
| 20260508042141 | 38 | 103 | 0.0 | 2.0 | 0.00 | 0.00 | 0.00 | 97 | 989.5 |
| 20260508041532 | 37 | 183 | 1.0 | 2.0 | 0.00 | 0.00 | 0.00 | 97 | 989.5 |
| 20260508040318 | 38 | 178 | 1.0 | 2.0 | 0.00 | 0.00 | 0.00 | 96 | 989.5 |
| 20260508035120 | 38 | 127 | 0.0 | 2.0 | 0.00 | 0.00 | 0.00 | 96 | 989.5 |
| 20260508034526 | 38 | 164 | 1.0 | 2.0 | 0.00 | 0.00 | 0.00 | 96 | 989.5 |
| 20260508033916 | 38 | 166 | 0.0 | 2.0 | 0.00 | 0.00 | 0.00 | 96 | 989.5 |
| 20260508033321 | 39 | 130 | 0.0 | 2.0 | 0.00 | 0.00 | 0.00 | 95 | 989.5 |
| 20260508032734 | 39 | 176 | 0.0 | 2.0 | 0.00 | 0.00 | 0.00 | 95 | 989.5 |
| 20260508032147 | 39 | 200 | 1.0 | 2.0 | 0.00 | 0.00 | 0.00 | 94 | 989.5 |
| 20260508031526 | 39 | 202 | 0.0 | 2.0 | 0.00 | 0.00 | 0.00 | 94 | 989.5 |
| 20260508030931 | 39 | 175 | 1.0 | 2.0 | 0.00 | 0.00 | 0.00 | 94 | 989.5 |
| 20260508030311 | 40 | 170 | 0.0 | 2.0 | 0.00 | 0.00 | 0.00 | 93 | 989.5 |
| 20260508025719 | 40 | 100 | 0.0 | 2.0 | 0.00 | 0.00 | 0.00 | 92 | 989.5 |
| 20260508025114 | 40 | 202 | 1.0 | 2.0 | 0.00 | 0.00 | 0.00 | 92 | 989.8 |
| 20260508024525 | 40 | 205 | 1.0 | 2.0 | 0.00 | 0.00 | 0.00 | 91 | 989.5 |
| 20260508023946 | 41 | 189 | 0.0 | 2.0 | 0.00 | 0.00 | 0.00 | 91 | 989.5 |
| 20260508023341 | 41 | 180 | 1.0 | 2.0 | 0.00 | 0.00 | 0.00 | 89 | 989.5 |
| 20260508022723 | 41 | 214 | 1.0 | 2.0 | 0.00 | 0.00 | 0.00 | 89 | 989.5 |
| 20260508021515 | 42 | 176 | 0.0 | 2.0 | 0.00 | 0.00 | 0.00 | 87 | 989.5 |
| 20260508020945 | 42 | 180 | 0.0 | 2.0 | 0.00 | 0.00 | 0.00 | 86 | 989.5 |
| 20260508020349 | 42 | 206 | 0.0 | 2.0 | 0.00 | 0.00 | 0.00 | 85 | 989.5 |
| 20260508015738 | 43 | 210 | 1.0 | 2.0 | 0.00 | 0.00 | 0.00 | 83 | 989.5 |
| 20260508015145 | 43 | 177 | 0.0 | 2.0 | 0.00 | 0.00 | 0.00 | 82 | 989.5 |
| 20260508014517 | 43 | 195 | 0.0 | 2.0 | 0.00 | 0.00 | 0.00 | 81 | 989.5 |
| 20260508012725 | 45 | 204 | 1.0 | 2.0 | 0.00 | 0.00 | 0.00 | 79 | 989.1 |
| 20260508011528 | 45 | 217 | 2.0 | 2.0 | 0.00 | 0.00 | 0.00 | 75 | 988.8 |
| 20260508010935 | 46 | 189 | 0.0 | 2.0 | 0.00 | 0.00 | 0.00 | 73 | 988.8 |
| 20260508010349 | 46 | 200 | 1.0 | 2.0 | 0.00 | 0.00 | 0.00 | 73 | 988.4 |
| 20260508005736 | 47 | 193 | 0.0 | 2.0 | 0.00 | 0.00 | 0.00 | 71 | 988.4 |
| 20260508003908 | 49 | 193 | 0.0 | 2.0 | 0.00 | 0.00 | 0.00 | 68 | 988.4 |
| 20260508003340 | 50 | 202 | 1.0 | 2.0 | 0.00 | 0.00 | 0.00 | 66 | 988.4 |
| 20260508002734 | 50 | 206 | 1.0 | 3.0 | 0.00 | 0.00 | 0.00 | 62 | 988.4 |
| 20260508002110 | 51 | 204 | 2.0 | 3.0 | 0.00 | 0.00 | 0.00 | 60 | 988.4 |
| 20260508001532 | 52 | 203 | 2.0 | 2.0 | 0.00 | 0.00 | 0.00 | 59 | 988.4 |
| 20260508000949 | 52 | 197 | 2.0 | 2.0 | 0.00 | 0.00 | 0.00 | 57 | 988.4 |
| 20260508000335 | 54 | 218 | 0.0 | 2.0 | 0.00 | 0.00 | 0.00 | 53 | 988.1 |
| 20260507235747 | 54 | 23 | 1.0 | 2.0 | 0.00 | 0.00 | 0.00 | 49 | 988.4 |
| 20260507235119 | 55 | 54 | 2.0 | 3.0 | 0.00 | 0.00 | 0.00 | 50 | 988.4 |
| 20260507234551 | 55 | 349 | 1.0 | 3.0 | 0.00 | 0.00 | 0.00 | 49 | 988.1 |
| 20260507233938 | 56 | 174 | 2.0 | 3.0 | 0.00 | 0.00 | 0.00 | 46 | 988.1 |
| 20260507233347 | 56 | 156 | 2.0 | 6.0 | 0.00 | 0.00 | 0.00 | 46 | 988.1 |
| 20260507231535 | 57 | 28 | 3.0 | 9.0 | 0.00 | 0.00 | 0.00 | 45 | 988.1 |
| 20260507225744 | 58 | 237 | 1.0 | 10.0 | 0.00 | 0.00 | 0.00 | 45 | 988.1 |
| 20260507225120 | 58 | 193 | 2.0 | 6.0 | 0.00 | 0.00 | 0.00 | 45 | 987.8 |
| 20260507224527 | 59 | 226 | 3.0 | 7.0 | 0.00 | 0.00 | 0.00 | 42 | 988.1 |
| 20260507223918 | 59 | 309 | 0.0 | 8.0 | 0.00 | 0.00 | 0.00 | 41 | 987.8 |
| 20260507223338 | 60 | 73 | 2.0 | 10.0 | 0.00 | 0.00 | 0.00 | 41 | 987.8 |
| 20260507222719 | 61 | 347 | 0.0 | 12.0 | 0.00 | 0.00 | 0.00 | 39 | 988.1 |
| 20260507221516 | 60 | 149 | 1.0 | 7.0 | 0.00 | 0.00 | 0.00 | 41 | 988.1 |
| 20260507220312 | 60 | 205 | 2.0 | 9.0 | 0.00 | 0.00 | 0.00 | 44 | 987.8 |
| 20260507215738 | 59 | 154 | 1.0 | 10.0 | 0.00 | 0.00 | 0.00 | 44 | 987.8 |
| 20260507215144 | 61 | 324 | 4.0 | 6.0 | 0.00 | 0.00 | 0.00 | 41 | 987.8 |
| 20260507213944 | 62 | 253 | 5.0 | 11.0 | 0.00 | 0.00 | 0.00 | 40 | 987.8 |
| 20260507212737 | 63 | 333 | 3.0 | 10.0 | 0.00 | 0.00 | 0.00 | 39 | 987.4 |
| 20260507211532 | 61 | 352 | 6.0 | 13.0 | 0.00 | 0.00 | 0.00 | 41 | 987.1 |
| 20260507210928 | 62 | 9 | 1.0 | 6.0 | 0.00 | 0.00 | 0.00 | 41 | 986.7 |
| 20260507210344 | 63 | 302 | 3.0 | 5.0 | 0.00 | 0.00 | 0.00 | 39 | 986.7 |
| 20260507204547 | 63 | 282 | 3.0 | 10.0 | 0.00 | 0.00 | 0.00 | 39 | 986.7 |
| 20260507202737 | 63 | 221 | 6.0 | 7.0 | 0.00 | 0.00 | 0.00 | 35 | 987.1 |
| 20260507202152 | 61 | 340 | 4.0 | 9.0 | 0.00 | 0.00 | 0.00 | 37 | 987.1 |
| 20260507201538 | 64 | 216 | 2.0 | 11.0 | 0.00 | 0.00 | 0.00 | 37 | 987.1 |
| 20260507200938 | 63 | 203 | 3.0 | 13.0 | 0.00 | 0.00 | 0.00 | 34 | 986.7 |
| 20260507195752 | 64 | 37 | 2.0 | 9.0 | 0.00 | 0.00 | 0.00 | 37 | 987.1 |
| 20260507195151 | 63 | 0 | 1.0 | 7.0 | 0.00 | 0.00 | 0.00 | 40 | 987.1 |
| 20260507194514 | 64 | 255 | 1.0 | 13.0 | 0.00 | 0.00 | 0.00 | 36 | 987.1 |
| 20260507193951 | 64 | 16 | 5.0 | 13.0 | 0.00 | 0.00 | 0.00 | 36 | 987.1 |
| 20260507192732 | 62 | 205 | 2.0 | 5.0 | 0.00 | 0.00 | 0.00 | 42 | 987.4 |
| 20260507192146 | 61 | 66 | 1.0 | 9.0 | 0.00 | 0.00 | 0.00 | 38 | 987.4 |
| 20260507191535 | 62 | 341 | 3.0 | 11.0 | 0.00 | 0.00 | 0.00 | 39 | 987.1 |
| 20260507190936 | 62 | 33 | 2.0 | 13.0 | 0.00 | 0.00 | 0.00 | 40 | 987.4 |
| 20260507185724 | 63 | 189 | 3.0 | 8.0 | 0.00 | 0.00 | 0.00 | 38 | 987.4 |
| 20260507185150 | 63 | 223 | 2.0 | 11.0 | 0.00 | 0.00 | 0.00 | 38 | 987.8 |
| 20260507184549 | 63 | 35 | 3.0 | 14.0 | 0.00 | 0.00 | 0.00 | 39 | 987.8 |
| 20260507183952 | 64 | 217 | 1.0 | 10.0 | 0.00 | 0.00 | 0.00 | 38 | 987.4 |
| 20260507183308 | 63 | 224 | 14.0 | 14.0 | 0.00 | 0.00 | 0.00 | 39 | 987.4 |
| 20260507182714 | 63 | 231 | 4.0 | 10.0 | 0.00 | 0.00 | 0.00 | 40 | 987.8 |
| 20260507182150 | 63 | 226 | 3.0 | 8.0 | 0.00 | 0.00 | 0.00 | 39 | 987.1 |
| 20260507181510 | 63 | 214 | 4.0 | 20.0 | 0.00 | 0.00 | 0.00 | 38 | 987.4 |
| 20260507180928 | 64 | 232 | 3.0 | 12.0 | 0.00 | 0.00 | 0.00 | 38 | 987.4 |
| 20260507180324 | 63 | 149 | 5.0 | 10.0 | 0.00 | 0.00 | 0.00 | 40 | 987.4 |
| 20260507174520 | 63 | 209 | 5.0 | 11.0 | 0.00 | 0.00 | 0.00 | 39 | 987.4 |
| 20260507173945 | 63 | 27 | 3.0 | 5.0 | 0.00 | 0.00 | 0.00 | 43 | 987.8 |
| 20260507172732 | 63 | 210 | 2.0 | 5.0 | 0.00 | 0.00 | 0.00 | 44 | 987.8 |
| 20260507172129 | 62 | 241 | 2.0 | 9.0 | 0.00 | 0.00 | 0.00 | 46 | 987.8 |
| 20260507170911 | 62 | 28 | 2.0 | 11.0 | 0.00 | 0.00 | 0.00 | 46 | 987.8 |
| 20260507170321 | 61 | 249 | 3.0 | 9.0 | 0.00 | 0.00 | 0.00 | 42 | 987.8 |
| 20260507165750 | 62 | 359 | 4.0 | 9.0 | 0.00 | 0.00 | 0.00 | 41 | 988.1 |
| 20260507165135 | 62 | 200 | 4.0 | 9.0 | 0.00 | 0.00 | 0.00 | 41 | 988.1 |
| 20260507163923 | 63 | 232 | 5.0 | 10.0 | 0.00 | 0.00 | 0.00 | 39 | 988.1 |
| 20260507162722 | 62 | 222 | 4.0 | 7.0 | 0.00 | 0.00 | 0.00 | 45 | 988.1 |
| 20260507162152 | 59 | 338 | 1.0 | 6.0 | 0.00 | 0.00 | 0.00 | 47 | 988.1 |
| 20260507161555 | 61 | 230 | 2.0 | 7.0 | 0.00 | 0.00 | 0.00 | 44 | 988.1 |
| 20260507160923 | 61 | 325 | 3.0 | 12.0 | 0.00 | 0.00 | 0.00 | 44 | 988.1 |
| 20260507160346 | 61 | 156 | 2.0 | 12.0 | 0.00 | 0.00 | 0.00 | 42 | 988.4 |
| 20260507155731 | 61 | 209 | 4.0 | 6.0 | 0.00 | 0.00 | 0.00 | 42 | 988.1 |
| 20260507155123 | 61 | 232 | 7.0 | 12.0 | 0.00 | 0.00 | 0.00 | 43 | 988.4 |
| 20260507154519 | 60 | 276 | 2.0 | 7.0 | 0.00 | 0.00 | 0.00 | 46 | 988.4 |
| 20260507153911 | 62 | 126 | 1.0 | 9.0 | 0.00 | 0.00 | 0.00 | 51 | 988.4 |
| 20260507153316 | 62 | 234 | 2.0 | 6.0 | 0.00 | 0.00 | 0.00 | 45 | 988.4 |
| 20260507152750 | 61 | 130 | 0.0 | 9.0 | 0.00 | 0.00 | 0.00 | 44 | 988.1 |
| 20260507151534 | 59 | 262 | 2.0 | 3.0 | 0.00 | 0.00 | 0.00 | 46 | 988.1 |
| 20260507150347 | 60 | 142 | 2.0 | 8.0 | 0.00 | 0.00 | 0.00 | 47 | 988.4 |
| 20260507145715 | 59 | 190 | 4.0 | 8.0 | 0.00 | 0.00 | 0.00 | 43 | 988.4 |
| 20260507145111 | 60 | 13 | 2.0 | 8.0 | 0.00 | 0.00 | 0.00 | 47 | 988.4 |
| 20260507144515 | 60 | 348 | 2.0 | 5.0 | 0.00 | 0.00 | 0.00 | 47 | 988.8 |
| 20260507143939 | 58 | 351 | 1.0 | 5.0 | 0.00 | 0.00 | 0.00 | 49 | 988.4 |
| 20260507143320 | 58 | 346 | 3.0 | 7.0 | 0.00 | 0.00 | 0.00 | 49 | 988.4 |
| 20260507142123 | 59 | 238 | 1.0 | 8.0 | 0.00 | 0.00 | 0.00 | 51 | 988.4 |
| 20260507141517 | 58 | 143 | 2.0 | 6.0 | 0.00 | 0.00 | 0.00 | 49 | 988.4 |
| 20260507140926 | 58 | 281 | 2.0 | 7.0 | 0.00 | 0.00 | 0.00 | 53 | 988.4 |
| 20260507140342 | 57 | 258 | 1.0 | 7.0 | 0.00 | 0.00 | 0.00 | 55 | 988.4 |
| 20260507135143 | 55 | 320 | 2.0 | 5.0 | 0.00 | 0.00 | 0.00 | 60 | 988.8 |
| 20260507134519 | 55 | 11 | 2.0 | 4.0 | 0.00 | 0.00 | 0.00 | 61 | 988.8 |
| 20260507133319 | 54 | 346 | 0.0 | 6.0 | 0.00 | 0.00 | 0.00 | 68 | 989.1 |
| 20260507132743 | 53 | 341 | 1.0 | 7.0 | 0.00 | 0.00 | 0.00 | 69 | 989.1 |
| 20260507132122 | 54 | 300 | 2.0 | 5.0 | 0.00 | 0.00 | 0.00 | 69 | 989.1 |
| 20260507130911 | 52 | 87 | 2.0 | 3.0 | 0.00 | 0.00 | 0.00 | 77 | 989.1 |
| 20260507130311 | 50 | 42 | 0.0 | 6.0 | 0.00 | 0.00 | 0.00 | 78 | 989.5 |
| 20260507124550 | 49 | 48 | 3.0 | 5.0 | 0.00 | 0.00 | 0.00 | 87 | 989.5 |
| 20260507123943 | 48 | 338 | 3.0 | 7.0 | 0.00 | 0.00 | 0.00 | 89 | 989.5 |
| 20260507123343 | 47 | 345 | 2.0 | 3.0 | 0.00 | 0.00 | 0.00 | 92 | 989.5 |
| 20260507122748 | 45 | 42 | 3.0 | 4.0 | 0.00 | 0.00 | 0.00 | 95 | 989.5 |
| 20260507122127 | 44 | 353 | 1.0 | 4.0 | 0.00 | 0.00 | 0.00 | 97 | 989.5 |
| 20260507120340 | 42 | 49 | 3.0 | 4.0 | 0.00 | 0.00 | 0.00 | 99 | 989.5 |
| 20260507115712 | 40 | 16 | 2.0 | 4.0 | 0.00 | 0.00 | 0.00 | 99 | 989.1 |
| 20260507115146 | 40 | 32 | 2.0 | 4.0 | 0.00 | 0.00 | 0.00 | 99 | 989.1 |
| 20260507114527 | 39 | 5 | 0.0 | 3.0 | 0.00 | 0.00 | 0.00 | 99 | 989.5 |
| 20260507113916 | 39 | 348 | 2.0 | 3.0 | 0.00 | 0.00 | 0.00 | 99 | 989.5 |
| 20260507113326 | 39 | 129 | 0.0 | 3.0 | 0.00 | 0.00 | 0.00 | 99 | 989.5 |
| 20260507112752 | 38 | 6 | 1.0 | 2.0 | 0.00 | 0.00 | 0.00 | 99 | 989.1 |
| 20260507111513 | 37 | 28 | 0.0 | 2.0 | 0.00 | 0.00 | 0.00 | 99 | 989.1 |
| 20260507110940 | 36 | 60 | 0.0 | 2.0 | 0.00 | 0.00 | 0.00 | 99 | 989.1 |
| 20260507110320 | 36 | 38 | 1.0 | 2.0 | 0.00 | 0.00 | 0.00 | 99 | 989.1 |
| 20260507105718 | 36 | 315 | 0.0 | 2.0 | 0.00 | 0.00 | 0.00 | 99 | 989.1 |
| 20260507105143 | 36 | 12 | 0.0 | 3.0 | 0.00 | 0.00 | 0.00 | 99 | 989.1 |
| 20260507104546 | 35 | 146 | 0.0 | 2.0 | 0.00 | 0.00 | 0.00 | 99 | 989.1 |
| 20260507103320 | 35 | 189 | 0.0 | 2.0 | 0.00 | 0.00 | 0.00 | 99 | 988.8 |
| 20260507102729 | 35 | 113 | 1.0 | 2.0 | 0.00 | 0.00 | 0.00 | 99 | 988.8 |